Погода в Гяндже

Азербайджан     40°40′26″N   46°21′18″E
темп.,
°C
ветер,
м/с
пор.,
м/с
влажн.,
%
обл.,
%
осадки,
мм/ч
давл.,
гПа
погр.,
м
30 ноября, вт
вт3001:00+13зюз32485 0.0 101719
04:00+13зюз224747 0.0 101614
07:00+12з34475 0.0 101436
10:00+15зсз23439 0.0 101486
13:00+18сз2239100 0.0 1011185
16:00+18ююз2240100 0.0 100950
19:00+17юз223934 0.0 100714
22:00+15ююз12385 0.0 100414
1 декабря, ср
ср101:00+13ююв01450 0.0 100311
04:00+12сз01500 0.0 100211
07:00+11зсз45560 0.0 100357
10:00+12сз712550 0.0 1004428
13:00+12сз912526 0.0 1004674
16:00+11зсз8125711 0.4 1005742
19:00+9зсз7135987 0.6 1007722
22:00+7сз6116485 0.6 1009444
2 декабря, чт
чт201:00+8сз3558100 0.0 1011253
04:00+7сз4762100 0.0 1013295
07:00+6сз366650 0.0 1015239
10:00+7зсз35595 0.0 1018378
13:00+9ссз23524 0.0 1018672
16:00+10сз22471 0.0 1019845
19:00+8ююв12552 0.0 102299
22:00+7зюз11634 0.0 102518
3 декабря, пт
пт301:00+5ссз22730 0.0 102656
04:00+4зсз11750 0.0 102739
07:00+4зсз12760 0.0 102730
10:00+5ссз22670 0.0 1029200
13:00+8с21575 0.0 1027607
16:00+8ссв115487 0.0 1025687
19:00+6вюв006494 0.0 102667
22:00+5юз00676 0.0 102627
4 декабря, сб
сб401:00+5з11690 0.0 102512
04:00+4з22690 0.0 102416
07:00+4з116825 0.0 102314
10:00+5ссз115917 0.0 1023119
13:00+8с11500 0.0 1021453
16:00+9всв22466 0.0 1019453
19:00+7в225625 0.0 102032
22:00+6вюв1161100 0.0 102012